NOAA 16 DEB, 41046

Orbit data source: Space-Track

NOAA 16 DEB, 41046 is space debris in SSO originally from a launch on Thu, 21 Sep 2000 UTC launched from the Air Force Western Test Range (AFWTR). Debris objects in space refer to the collection of defunct objects orbiting the Earth. Examples of debris include non-operational satellites, rocket bodies, and fragments generated from explosions, collisions, or faulty payload assembly.

Loading next visibility...
NOAA 16 DEB details
Identifier
41046, 2000-055D
Orbit
SSO
Last TLE update10 hours ago
Origin
Flag of USNOAA (US)
ManufacturerUnknown
MissionSpacecraft
Bus & MotorUnknown
MassUnknown
Launch date (UTC)
2000-09-21 (24 years ago)
Launch vehicleUnknown
Launch site
Air Force Western Test Range (AFWTR)
Object type
Payload
Rocket body
Debris
Shape & HBRUnknown
Radar Cross SectionSmall (<0.1 m²)

Expand to show TLE details & history

TLE from 10 hours ago
0 NOAA 16 DEB
1 41046U 00055D   24361.46755599  .00001984  00000-0  99256-3 0  9997
2 41046  98.6742  68.8093 0013329  71.4357 288.8265 14.17790656469253
Epoch: 2024-12-26T11:13Z
Definitive object data (Epoch: 2024-12-26T11:13:16.837Z)
Latitude-0.00004°
Longitude165.04262°
Altitude832.656 km
Speed7.438 km/s
True Right ascension04h 35m 14s
True Declination0° 00' 00"
Sunlit
Object was in full shadow at TLE epoch
Visualization TLE readout
Latitude-1.92116°
Longitude165.74738°
Altitude833.034 km
Speed7.438 km/s
Apparent Right ascension06h 15m 41s
Apparent Declination-22° 24' 51"
Sunlit
Object is in full shadow
Visualization observer readout
Local Sidereal Time20:45:27
Azimuth72.378° E
Elevation-53.864°
Doppler factor1
Orbital elements
Apogee altitude839.602 km
Perigee altitude820.386 km
Semi-major axis7,208.131 km
Eccentricity0.0013329
Inclination98.6742°
RAAN68.8093°
Arg. of periapsis71.4357°
True anomaly288.68185°
Mean anomaly288.8265°
Eccentric anomaly288.75419°
Mean motion3.54658 °/min
BSTAR0.00099256
Orbital period101.51 mins
Loading maneuver chart data...
Loading historical data...
Loading historical data...
Loading historical data...
Loading historical data...
Loading historical data...
Loading historical data...
Loading historical data...

NOAA 16 DEB Visibility forecast

Observer location: undefined°, undefined

Span
Click to sort rows by Start time (UTC) header in descending order
Start Az.
Max El. time (UTC)
Max El. Az.
Max El.
End time (UTC)
End Az.
9 mins2024-12-27 04:16:28.634Z147.37° SSE2024-12-27 04:21:28.634Z60.895° ENE39.372°2024-12-27 04:25:28.634Z358.276° N
5 mins2024-12-27 05:59:28.634Z236.601° WSW2024-12-27 06:01:28.634Z261.762° W16.843°2024-12-27 06:04:28.634Z300.481° NW
7 mins2024-12-27 16:37:28.634Z49.429° ENE2024-12-27 16:40:28.634Z90.506° ESE22.423°2024-12-27 16:44:28.634Z144.243° SSE
8 mins2024-12-27 18:17:28.634Z352.317° N2024-12-27 18:21:28.634Z281.329° WNW33.14°2024-12-27 18:25:28.634Z224.955° SW
|